Location: Schommer Observatory
(40.5200°N, 74.4500°W)
Time: 09:08:53
(UTC-05:00)

N. Korean satellite - Pass Details

Date: 10 November 2017
Orbit: 460 x 514 km, 97.2° (Epoch: 20 November)

Event Time Altitude Azimuth Distance (km) Brightness Sun altitude
Rises 17:13:03 0° 137° (SE) 2,473 9.9 -5.9°
Reaches altitude 10° 17:15:23 10° 122° (ESE) 1,606 8.8 -6.4°
Maximum altitude 17:18:04 22° 70° (ENE) 1,070 7.7 -6.8°
Drops below altitude 10° 17:20:48 10° 18° (NNE) 1,626 8.9 -7.3°
Sets 17:23:10 0° 3° (N) 2,515 10.0 -7.8°
